[[{"header":{"parameterUnit":"m.s-1","parameterCategory":1,"la1":30.2991,"la2":30.254,"lo1":-89.0895,"lo2":-89.0444,"dy":0.0017,"dx":0.0017,"nx":28,"ny":28,"refTime":"2024-07-06T03:00:00:Z","depth":0,"parameterNumber":2,"parameterNumberName":"U-component_of_WINDS"},"data":[0,0,0,0,0,0,0,0,0,0,0,0,0,0,0,0,0,0,0,0,0,0,0,0,0,0,0,0,0,0,0,0,0,0,0,0,0,0,0,0,0,0,0,0,0,0,0,0,0,0,0,0,0,0,0,0,0,0,0.5093,0.5094,0,0.5207,0.5209,0.521,0.5214,0.5213,0.5211,0.521,0.5338,0.5343,0.5347,0,0,0,0,0,0,0,0,0,0,0,0,0,0.4891,0.4895,0.5093,0.5094,0.5096,0.5207,0.5209,0.521,0.5215,0.5213,0.5211,0.5209,0.5337,0.5342,0.5348,0,0,0,0,0,0,0,0,0,0,0,0,0,0.499,0.4896,0.5093,0.5111,0.5114,0.5207,0.5209,0.5211,0.5215,0.5213,0.5211,0.5209,0.5335,0.5342,0.5349,0.5435,0,0,0.537,0.5373,0,0,0,0,0,0,0,0,0.4984,0.4997,0.5107,0.511,0.5113,0.5194,0.5185,0.5286,0.5215,0.5177,0.521,0.5208,0.5293,0.5303,0.533,0.5441,0.5446,0.5371,0.5375,0.5378,0.538,0,0,0,0,0,0,0,0.4977,0.4992,0.5139,0.5109,0.5112,0.5118,0.513,0.5204,0.5246,0.518,0.5181,0.5193,0.5294,0.5323,0.5333,0.5448,0.5371,0.5377,0.5381,0.5384,0.5642,0.5644,0,0,0,0,0,0,0.4965,0.4987,0.5135,0.5142,0.5042,0.5123,0.5136,0.5171,0.5245,0.5254,0.5195,0.5193,0.5312,0.5324,0.5337,0.5446,0.5378,0.5385,0.5389,0.5639,0.5642,0.5645,0,0,0,0,0,0,0.4961,0.4978,0.513,0.5065,0.5084,0.5129,0.5167,0.5174,0.5202,0.5256,0.5265,0.5216,0.531,0.5327,0.5411,0.5451,0.5388,0.5394,0.5636,0.564,0.5644,0.5663,0,0,0,0,0,0,0.4955,0.4977,0.5006,0.5065,0.5088,0.5198,0.517,0.5178,0.5213,0.5212,0.5278,0.5287,0.531,0.54,0.5418,0.5459,0.54,0.5633,0.5638,0.5642,0.5659,0.5667,0.5673,0,0,0,0,0,0.4948,0.5008,0.5008,0.5026,0.5125,0.52,0.5214,0.5236,0.5216,0.5249,0.5284,0.5285,0.5443,0.5409,0.5429,0.5473,0.563,0.5636,0.5642,0.5655,0.5665,0.5673,0,0,0,0,0,0,0.4956,0.5016,0.5016,0.5097,0.5143,0.52,0.5242,0.5245,0.53,0.5297,0.5326,0.5341,0.5426,0.5457,0.5418,0.5563,0.5535,0.5545,0.5539,0.5548,0.5555,0.5547,0.5406,0,0,0,0,0,0.4967,0.5019,0.507,0.5137,0.516,0.5197,0.523,0.5244,0.5294,0.5315,0.5356,0.5409,0.5471,0.5511,0.5571,0.5663,0.5681,0.5704,0.5711,0.5717,0.5726,0.5783,0.5795,0.5664,0.5664,0.5664,0,0,0.4991,0.503,0.5061,0.514,0.5177,0.5235,0.5213,0.5274,0.5319,0.5326,0.5407,0.5439,0.55,0.559,0.5631,0.5619,0.5767,0.5725,0.5729,0.5735,0.579,0.5803,0.5814,0.5668,0.5667,0.5667,0,0,0.5064,0.5097,0.5157,0.5195,0.5251,0.5276,0.5291,0.5349,0.537,0.5451,0.5459,0.5515,0.5619,0.5664,0.57,0.5794,0.5799,0.5813,0.5853,0.5908,0.5918,0.5927,0.5965,0.5978,0.5822,0.5822,0.5822,0,0.5087,0.517,0.5189,0.5251,0.5287,0.5293,0.5358,0.5395,0.547,0.5497,0.5481,0.5616,0.5657,0.5759,0.5782,0.581,0.5832,0.5806,0.5914,0.5924,0.5933,0.5969,0.5983,0.5823,0.5823,0.5823,0.5823,0,0.5198,0.5256,0.53,0.5368,0.541,0.5473,0.5506,0.5547,0.5558,0.5586,0.5673,0.5722,0.5794,0.5819,0.5831,0.5925,0.5916,0.5907,0.588,0.5947,0.5982,0.5995,0.5826,0.5825,0.5825,0.5824,0,0,0.5279,0.5359,0.5374,0.5408,0.5472,0.5519,0.5585,0.5653,0.5689,0.5741,0.5801,0.5891,0.5884,0.5925,0.5943,0.599,0.6068,0.5976,0.5978,0.5995,0.618,0.6188,0.6204,0.607,0.6073,0.6075,0.6176,0,0.5361,0.5473,0.5495,0.5595,0.5652,0.566,0.5719,0.5767,0.5796,0.5853,0.5887,0.5952,0.5935,0.5961,0.6008,0.6048,0.6106,0.6041,0.6131,0.6134,0.6117,0.6221,0.6229,0.6322,0.619,0.6192,0.6194,0,0.5471,0.5524,0.5629,0.5689,0.5714,0.5765,0.5831,0.5883,0.5941,0.596,0.6007,0.602,0.6095,0.6063,0.617,0.6125,0.6164,0.619,0.6194,0.6205,0.6169,0.6239,0.6352,0.6367,0.6214,0.6213,0.6211,0,0.5524,0.5622,0.5698,0.5726,0.5797,0.5833,0.5866,0.592,0.5961,0.602,0.6048,0.6117,0.6155,0.621,0.6244,0.6217,0.635,0.632,0.6372,0.6371,0.6401,0.6399,0.6525,0.6421,0.6421,0.642,0.642,0,0.5615,0.568,0.5723,0.577,0.5846,0.5871,0.5947,0.5979,0.6029,0.6087,0.6099,0.6154,0.6194,0.6256,0.6284,0.6371,0.6387,0.6408,0.6415,0.6409,0.6406,0.6436,0.6432,0.6424,0.6423,0.6423,0.6422,0,0.5686,0.5717,0.5802,0.5862,0.5879,0.5932,0.5986,0.6036,0.6065,0.6139,0.6158,0.6207,0.6281,0.632,0.6413,0.6432,0.6532,0.6533,0.6511,0.6514,0.6566,0.6562,0.6717,0.6741,0.6618,0.6619,0.662,0,0.5743,0.5793,0.5859,0.5897,0.5929,0.599,0.6031,0.6061,0.6104,0.6176,0.6218,0.6292,0.6354,0.6474,0.6521,0.6594,0.66,0.665,0.6611,0.6604,0.6605,0.6603,0.6611,0.6657,0.6658,0.6659,0.666,0,0.5843,0.5856,0.5912,0.5976,0.6025,0.6077,0.613,0.6161,0.62,0.625,0.6324,0.6372,0.6467,0.6543,0.6621,0.666,0.6669,0.6671,0.6688,0.6683,0.6669,0.6681,0.6533,0.6668,0.6667,0.6667,0.6666,0.6666,0.5911,0.5957,0.6011,0.6076,0.6118,0.6167,0.6217,0.6253,0.6315,0.6392,0.6408,0.6488,0.6551,0.6655,0.6696,0.6764,0.6754,0.6777,0.6783,0.6789,0.6793,0.6656,0.6778,0.6777,0.6777,0.6777,0.6777,0,0.6014,0.6049,0.6108,0.618,0.6232,0.6232,0.6291,0.6336,0.6406,0.6461,0.6521,0.661,0.6685,0.6738,0.6816,0.686,0.6866,0.688,0.6878,0.6888,0.6796,0.6775,0.6873,0.6873,0.6873,0.6873,0.6873,0.6873,0.6073,0.6153,0.6174,0.6277,0.6313,0.6389,0.6424,0.6472,0.6516,0.6613,0.6674,0.6707,0.6764,0.6847,0.6917,0.6932,0.6962,0.6975,0.6991,0.6904,0.6894,0.6884,0.6865,0.6981,0.6981,0.7078,0.7079,0.708]},{"header":{"parameterUnit":"m.s-1","parameterCategory":1,"la1":30.2991,"la2":30.254,"lo1":-89.0895,"lo2":-89.0444,"dy":0.0017,"dx":0.0017,"nx":28,"ny":28,"refTime":"2024-07-06T03:00:00:Z","depth":0,"parameterNumber":3,"parameterNumberName":"V-component_of_WINDS"},"data":[0,0,0,0,0,0,0,0,0,0,0,0,0,0,0,0,0,0,0,0,0,0,0,0,0,0,0,0,0,0,0,0,0,0,0,0,0,0,0,0,0,0,0,0,0,0,0,0,0,0,0,0,0,0,0,0,0,0,-0.8415,-0.8414,0,-0.8299,-0.8298,-0.8296,-0.8231,-0.8231,-0.8231,-0.8231,-0.8106,-0.8103,-0.81,0,0,0,0,0,0,0,0,0,0,0,0,0,-0.8572,-0.857,-0.8415,-0.8414,-0.8412,-0.8299,-0.8298,-0.8296,-0.8232,-0.8231,-0.8231,-0.8231,-0.8107,-0.8103,-0.81,0,0,0,0,0,0,0,0,0,0,0,0,0,-0.8485,-0.8569,-0.8415,-0.8367,-0.8361,-0.83,-0.8298,-0.8296,-0.8232,-0.8231,-0.8231,-0.8231,-0.8108,-0.8104,-0.8099,-0.8076,0,0,-0.8085,-0.8083,0,0,0,0,0,0,0,0,-0.849,-0.8479,-0.8375,-0.837,-0.8364,-0.828,-0.8307,-0.8222,-0.8232,-0.8281,-0.8231,-0.8231,-0.8164,-0.8154,-0.8133,-0.807,-0.8064,-0.8084,-0.8081,-0.8079,-0.8078,0,0,0,0,0,0,0,-0.8496,-0.8484,-0.8369,-0.8374,-0.8367,-0.8348,-0.8335,-0.8291,-0.8225,-0.8276,-0.8271,-0.8259,-0.816,-0.8138,-0.813,-0.8062,-0.8084,-0.808,-0.8077,-0.8075,-0.7969,-0.797,0,0,0,0,0,0,-0.8511,-0.8489,-0.8373,-0.8366,-0.8428,-0.8345,-0.8331,-0.8307,-0.8225,-0.8213,-0.8259,-0.8256,-0.8146,-0.8135,-0.8125,-0.809,-0.8079,-0.8075,-0.8072,-0.7969,-0.7969,-0.797,0,0,0,0,0,0,-0.8515,-0.8501,-0.8377,-0.8426,-0.8409,-0.8343,-0.8316,-0.8305,-0.8282,-0.8212,-0.82,-0.8249,-0.8145,-0.8132,-0.8088,-0.8084,-0.8073,-0.8069,-0.7969,-0.7969,-0.797,-0.8021,0,0,0,0,0,0,-0.852,-0.8503,-0.8496,-0.8426,-0.8407,-0.8345,-0.8316,-0.8302,-0.8275,-0.827,-0.8199,-0.8187,-0.8144,-0.8095,-0.8083,-0.8078,-0.8065,-0.7969,-0.7969,-0.7969,-0.8019,-0.8022,-0.8025,0,0,0,0,0,-0.8525,-0.8514,-0.8496,-0.8482,-0.8396,-0.8345,-0.8333,-0.8286,-0.8275,-0.8265,-0.822,-0.8189,-0.8087,-0.8091,-0.8077,-0.807,-0.7969,-0.7969,-0.7969,-0.8017,-0.8022,-0.8025,0,0,0,0,0,0,-0.8583,-0.8504,-0.8483,-0.8449,-0.8405,-0.8334,-0.8321,-0.8292,-0.8248,-0.8245,-0.8186,-0.817,-0.8131,-0.8096,-0.8103,-0.8041,-0.8025,-0.8022,-0.8066,-0.8069,-0.8072,-0.8081,-0.8061,0,0,0,0,0,-0.8592,-0.856,-0.8491,-0.8468,-0.8447,-0.8388,-0.8364,-0.8331,-0.8281,-0.8261,-0.8213,-0.8164,-0.812,-0.8093,-0.8049,-0.8013,-0.7995,-0.8001,-0.8004,-0.8007,-0.8005,-0.798,-0.7982,-0.797,-0.797,-0.797,0,0,-0.861,-0.8563,-0.8546,-0.8478,-0.844,-0.8404,-0.8372,-0.8337,-0.8309,-0.8255,-0.8211,-0.8174,-0.8114,-0.8074,-0.8054,-0.8043,-0.8004,-0.8007,-0.801,-0.8006,-0.7981,-0.7982,-0.7983,-0.797,-0.797,-0.797,0,0,-0.8624,-0.8587,-0.8562,-0.8524,-0.8466,-0.8427,-0.8421,-0.8354,-0.8327,-0.8283,-0.824,-0.8205,-0.8132,-0.8091,-0.806,-0.8056,-0.8025,-0.8043,-0.806,-0.8036,-0.8037,-0.8038,-0.8034,-0.8034,-0.8042,-0.8042,-0.8042,0,-0.8653,-0.8601,-0.8553,-0.8519,-0.8489,-0.844,-0.8412,-0.8377,-0.8307,-0.8286,-0.8276,-0.8182,-0.8139,-0.8086,-0.8085,-0.8063,-0.8052,-0.8051,-0.8042,-0.8041,-0.8041,-0.8037,-0.8036,-0.8044,-0.8044,-0.8044,-0.8043,0,-0.8638,-0.8603,-0.8589,-0.8524,-0.8493,-0.8463,-0.8406,-0.838,-0.8349,-0.8309,-0.8262,-0.8208,-0.8151,-0.8136,-0.8106,-0.8078,-0.8074,-0.8053,-0.8035,-0.8046,-0.804,-0.8038,-0.8048,-0.8047,-0.8046,-0.8045,0,0,-0.8687,-0.8595,-0.8591,-0.856,-0.8491,-0.8461,-0.8426,-0.8373,-0.835,-0.8302,-0.827,-0.8208,-0.8188,-0.8153,-0.8117,-0.8096,-0.8093,-0.8078,-0.8075,-0.8081,-0.8057,-0.8072,-0.8071,-0.8072,-0.8072,-0.8071,-0.8061,0,-0.8691,-0.863,-0.8584,-0.8539,-0.8504,-0.8455,-0.8424,-0.8377,-0.8339,-0.83,-0.8256,-0.8213,-0.8191,-0.8169,-0.8147,-0.8099,-0.8087,-0.8099,-0.8039,-0.8037,-0.8055,-0.8069,-0.8085,-0.8078,-0.8059,-0.8058,-0.8058,0,-0.8687,-0.8643,-0.8596,-0.8529,-0.8512,-0.8486,-0.8431,-0.8396,-0.834,-0.8313,-0.8273,-0.8235,-0.8193,-0.8179,-0.8119,-0.8127,-0.8099,-0.8072,-0.807,-0.8062,-0.8048,-0.806,-0.8075,-0.8074,-0.8055,-0.8055,-0.8055,0,-0.8726,-0.8654,-0.8615,-0.859,-0.8512,-0.8494,-0.846,-0.8404,-0.8373,-0.8324,-0.8303,-0.8249,-0.8219,-0.8177,-0.8124,-0.8119,-0.8067,-0.805,-0.8041,-0.8043,-0.8033,-0.8034,-0.8043,-0.8017,-0.8017,-0.8017,-0.8017,0,-0.8734,-0.8706,-0.8631,-0.8608,-0.8574,-0.8519,-0.8486,-0.8448,-0.8398,-0.8363,-0.8316,-0.8284,-0.8217,-0.8175,-0.8133,-0.8088,-0.8075,-0.8049,-0.8038,-0.8053,-0.8056,-0.8034,-0.8032,-0.8016,-0.8017,-0.8017,-0.8017,0,-0.8771,-0.8721,-0.8675,-0.8604,-0.8585,-0.8563,-0.8501,-0.8474,-0.8432,-0.8389,-0.8375,-0.8308,-0.8257,-0.82,-0.8129,-0.81,-0.8057,-0.8042,-0.8077,-0.807,-0.8064,-0.8065,-0.8058,-0.8053,-0.8033,-0.8033,-0.8033,0,-0.878,-0.8757,-0.8684,-0.8659,-0.8626,-0.8586,-0.8554,-0.8498,-0.8467,-0.84,-0.838,-0.8326,-0.8279,-0.8198,-0.8142,-0.8086,-0.8068,-0.8069,-0.8059,-0.8074,-0.8066,-0.8068,-0.8064,-0.8072,-0.8073,-0.8073,-0.8074,0,-0.8799,-0.8775,-0.8733,-0.8681,-0.8646,-0.8602,-0.8556,-0.8537,-0.847,-0.8437,-0.8385,-0.8349,-0.8276,-0.8221,-0.8158,-0.8119,-0.8084,-0.8077,-0.8072,-0.8087,-0.8107,-0.8094,-0.8084,-0.8078,-0.8077,-0.8077,-0.8077,-0.8077,-0.8821,-0.8798,-0.8743,-0.8696,-0.8656,-0.8614,-0.8584,-0.8539,-0.8495,-0.8433,-0.8402,-0.8349,-0.8289,-0.8202,-0.8163,-0.8119,-0.8108,-0.8101,-0.8099,-0.8098,-0.8101,-0.8115,-0.8107,-0.8107,-0.8107,-0.8107,-0.8107,0,-0.8837,-0.8798,-0.8757,-0.8694,-0.8657,-0.8629,-0.8576,-0.8546,-0.8501,-0.845,-0.8405,-0.8343,-0.8288,-0.8227,-0.8168,-0.8144,-0.8126,-0.813,-0.8131,-0.8122,-0.8115,-0.8125,-0.8145,-0.8145,-0.8145,-0.8145,-0.8145,-0.8145,-0.8841,-0.88,-0.8768,-0.8705,-0.8665,-0.8616,-0.8587,-0.8546,-0.8505,-0.8439,-0.8394,-0.8355,-0.8298,-0.8234,-0.8182,-0.8165,-0.8144,-0.8153,-0.8131,-0.8126,-0.8123,-0.812,-0.8128,-0.8149,-0.8149,-0.8141,-0.8141,-0.8141]}]]